SCP
1 1 1 1 1 1 1 1 1 1 1 1 1 1 1 1 0 0 0 0 0 0 0 0 0 0 0 0 0 0 0 0 0 0 0 0 0 0 0 0 0 0 0
1 1 1 1 1 1 1 1 1 1 1 1 1 1 1 0 0 0 0 0 0 0 0 0 0 0 0 0 0 0 0 0 0 0 0 0 0 0 0 0 0 0 0
1 1 1 1 1 1 1 1 1 1 1 1 1 0 0 0 0 0 0 0 0 0 0 0 0 0 0 0 0 0 0 0 0 0 0 0 0 0 0 0 0 0 0
1 1 1 2 1 1 1 1 1 1 1 1 0 0 0 0 0 0 0 0 0 0 0 0 0 0 0 0 0 0 0 0 0 0 0 0 0 0 0 0 0 0 0
2 1 2 2 2 1 1 1 1 1 1 1 0 0 0 0 0 0 0 0 0 0 0 0 0 0 0 0 0 0 0 0 0 0 0 0 0 0 0 0 0 0 0
2 2 2 2 2 2 1 1 1 1 1 1 1 0 0 0 0 0 0 0 0 0 0 0 0 0 0 0 0 0 0 0 0 0 0 0 0 0 0 0 0 0 0
3 2 2 2 2 2 2 1 1 1 1 1 1 0 0 0 0 0 0 0 0 0 0 0 0 0 0 0 0 0 0 0 0 0 0 0 0 0 0 0 0 0 0
3 3 2 2 2 2 2 1 1 1 1 1 1 0 0 0 0 0 0 0 0 0 0 0 0 0 0 0 0 0 0 0 0 0 0 0 0 0 0 0 0 0 0
3 3 2 2 2 2 2 1 1 1 1 1 1 0 0 0 0 0 0 0 0 0 0 0 0 0 0 0 0 0 0 0 0 0 0 0 0 0 0 0 0 0 0
3 3 3 3 3 3 2 2 1 1 1 1 1 0 0 0 0 0 0 0 0 0 0 0 0 0 0 0 0 0 0 0 0 0 0 0 0 0 0 0 0 0 0
3 3 3 3 3 3 3 2 1 1 1 1 1 0 0 0 0 0 0 0 0 0 0 0 0 0 0 0 0 0 0 0 0 0 0 0 0 0 0 0 0 0 0
3 2 2 3 3 3 3 2 2 1 1 1 1 0 0 0 0 0 0 0 0 0 0 0 0 0 0 0 0 0 0 0 0 0 0 0 0 0 0 0 0 0 0
3 3 2 2 2 3 3 2 2 1 1 1 0 0 0 0 0 0 0 0 0 0 0 0 0 0 0 0 0 0 0 0 0 0 0 0 0 0 0 0 0 0 0
3 3 3 2 2 2 2 2 2 1 1 1 0 0 0 0 0 0 0 0 0 0 0 0 0 0 0 0 0 0 0 0 0 0 0 0 0 0 0 0 0 0 0
3 3 3 3 2 2 2 2 2 1 1 1 0 0 0 0 0 0 0 0 0 0 0 0 0 0 0 0 0 0 0 0 0 0 0 0 0 0 0 0 0 0 0
3 3 3 2 2 2 2 1 1 1 1 1 0 0 0 0 0 0 0 0 0 0 0 0 0 0 0 0 0 0 0 0 0 0 0 0 0 0 0 0 0 0 0
3 3 2 2 2 2 2 2 1 1 1 1 0 0 0 0 0 0 0 0 0 0 0 0 0 0 0 0 0 0 0 0 0 0 0 0 0 0 0 0 0 0 0
2 2 3 2 2 2 3 2 1 1 1 1 0 0 0 0 0 0 0 0 0 0 0 0 0 0 0 0 0 0 0 0 0 0 0 0 0 0 0 0 0 0 0
2 2 2 3 2 3 3 2 1 1 1 1 1 0 0 0 0 0 0 0 0 0 0 0 0 0 0 0 0 0 0 0 0 0 0 0 0 0 0 0 0 0 0
2 2 2 2 2 2 2 2 1 1 1 1 1 0 0 0 0 0 0 0 0 0 0 0 0 0 0 0 0 0 0 0 0 0 0 0 0 0 0 0 0 0 0
3 3 3 2 2 2 2 1 1 1 1 1 1 1 1 1 1 1 0 0 0 0 0 0 0 0 0 0 0 0 0 0 0 0 0 0 0 0 0 0 0 0 0
4 4 3 3 3 3 2 1 1 1 1 1 1 1 1 1 1 1 1 0 0 0 0 0 0 0 0 0 0 0 0 0 0 0 0 0 0 0 0 0 0 0 0
5 4 4 4 4 3 2 2 1 1 1 1 1 1 1 1 1 1 0 0 0 0 0 0 0 0 0 0 0 0 0 0 0 0 0 0 0 0 0 0 0 0 0
5 4 4 4 4 4 3 2 1 1 1 1 1 1 1 1 1 1 0 0 0 0 0 0 0 0 0 0 0 0 0 0 0 0 0 0 0 0 0 0 0 0 0
4 4 4 4 4 4 4 4 2 1 1 1 1 1 1 0 1 1 1 0 0 0 0 0 0 0 0 0 0 0 0 0 0 0 0 0 0 0 0 0 0 0 0
4 4 4 4 4 4 5 6 3 1 1 1 1 1 0 0 0 1 1 0 0 0 0 0 0 0 0 0 0 0 0 0 0 0 0 0 0 0 0 0 0 0 0
Wind_Speed
8 10 17 17 17 17 17 17 17 18 18 17 17 16 16 15 14 13 12 11 10 10 10 10 10 10 10 11 12 12 13 13 13 14 14 15 15 16 16 16 15 12 17
12 13 19 18 18 18 17 17 17 17 17 17 16 15 15 14 13 12 11 10 10 10 10 10 10 10 11 12 12 13 13 12 13 14 15 14 16 16 16 16 15 11 16
14 13 16 19 18 18 17 17 17 17 16 16 15 14 14 13 12 12 11 10 10 11 11 11 11 11 11 12 13 13 13 13 13 14 14 8 10 15 15 15 15 15 15
14 12 13 19 18 18 17 17 16 16 16 15 14 13 13 12 12 11 11 10 10 10 11 10 11 11 11 12 12 12 12 13 13 14 8 7 7 13 14 15 15 15 15
12 10 14 21 19 18 17 16 16 16 15 14 14 13 12 12 11 11 10 10 10 10 10 10 10 11 11 11 12 12 12 12 13 10 7 6 6 12 14 14 14 14 14
12 10 14 20 19 18 17 16 16 15 14 14 13 12 11 11 11 11 10 10 10 10 10 10 10 11 11 11 11 11 12 12 11 7 7 6 6 11 13 14 13 14 13
12 10 13 20 19 18 17 16 16 15 14 13 12 11 11 11 10 10 10 10 10 10 10 10 10 10 10 10 10 10 11 13 8 7 6 6 6 11 13 13 12 13 13
13 11 12 19 19 18 17 17 16 15 14 13 12 11 11 11 10 10 10 9 9 9 9 9 10 10 9 9 9 9 11 11 9 7 6 5 8 10 12 12 12 12 12
11 10 9 11 14 17 17 16 16 15 14 13 12 11 11 11 10 10 9 9 9 9 9 9 9 9 8 7 8 9 10 11 7 5 6 4 8 10 12 12 11 11 11
9 9 8 8 7 8 10 15 16 15 14 13 12 11 11 10 10 9 8 7 8 8 8 8 8 8 7 6 7 8 10 10 6 5 4 5 9 10 11 11 11 11 11
10 8 8 7 7 6 7 11 12 13 13 12 10 12 9 4 4 5 6 7 7 7 7 7 7 7 6 5 6 8 8 4 5 4 3 7 9 10 11 10 10 10 10
12 9 7 7 7 7 7 6 4 4 5 5 4 4 4 3 3 4 4 6 7 6 6 6 6 7 5 3 4 6 3 5 4 3 4 8 9 10 10 10 10 10 9
11 10 8 8 7 6 4 4 3 3 3 4 4 4 4 3 2 2 1 1 2 3 3 4 4 3 3 3 2 3 3 3 2 3 4 8 9 10 10 10 10 10 9
11 10 9 8 7 6 5 4 4 3 3 3 3 4 3 2 2 1 1 1 1 2 2 2 2 2 3 3 3 3 4 3 2 2 3 8 8 9 10 9 9 9 9
11 10 9 9 8 6 5 4 5 4 4 3 3 3 4 3 2 2 1 1 2 2 2 2 1 2 2 2 2 4 4 4 4 3 2 7 8 8 9 9 9 9 9
11 11 9 9 7 6 5 4 4 4 4 3 3 4 4 3 3 3 2 2 2 2 2 2 2 2 1 1 2 3 3 3 3 3 2 3 7 7 8 9 9 9 9
10 10 10 10 8 7 6 5 4 4 4 4 3 4 4 4 4 3 3 2 2 2 2 2 2 2 2 1 1 2 2 2 3 3 3 2 3 6 8 8 8 9 9
9 10 10 10 9 8 6 5 4 4 4 4 3 3 5 5 5 4 3 3 3 2 2 2 2 2 2 2 1 1 1 1 2 3 3 3 2 3 5 8 8 8 9
10 10 10 8 9 8 6 4 4 4 4 4 4 4 4 5 5 4 3 2 3 3 2 2 2 2 2 2 2 1 1 1 1 2 2 3 3 3 3 4 7 8 10
9 9 9 8 8 7 5 4 2 3 3 3 4 4 5 4 5 4 3 3 3 3 2 2 3 2 2 2 2 2 1 0 0 1 2 2 3 4 4 3 3 5 8
8 9 10 8 7 7 5 5 4 4 3 3 3 5 6 5 6 5 4 4 3 3 3 4 3 3 2 2 3 2 2 1 0 1 2 2 3 4 4 4 3 3 3
9 8 8 8 8 8 6 5 3 3 2 2 2 3 5 6 6 5 5 4 4 3 4 3 3 3 2 2 2 2 1 2 2 1 1 3 3 3 4 5 5 5 4
9 10 9 9 9 8 7 4 4 3 2 2 2 2 3 5 5 5 6 5 4 4 4 3 4 4 3 1 1 3 3 2 1 2 1 2 2 3 3 4 5 6 6
9 8 9 9 9 9 8 8 9 6 5 5 4 3 3 4 5 5 6 5 5 3 4 3 3 3 4 3 1 1 1 2 2 0 2 1 2 3 4 4 5 5 6
7 8 9 9 8 8 8 9 9 6 4 3 3 4 3 3 4 5 5 5 5 3 4 4 4 3 3 3 3 2 2 1 2 2 1 2 1 2 2 3 3 4 4
5 6 7 8 8 8 8 8 9 9 7 7 6 5 4 2 2 4 5 4 5 4 4 4 4 4 3 3 3 2 3 2 2 2 2 1 1 2 1 1 2 3 3
Wind_Direction
153 153 149 144 138 133 128 125 123 122 122 122 123 124 125 126 126 124 122 121 118 115 113 111 112 113 113 115 117 120 121 121 122 122 119 118 117 115 114 114 112 111 113
147 151 150 147 142 136 131 128 126 125 125 125 125 125 125 126 125 123 122 120 118 115 113 111 112 112 113 114 115 118 122 123 124 123 120 119 118 117 116 116 116 118 118
144 149 150 149 144 139 135 132 130 129 129 128 128 128 128 127 126 123 122 118 117 116 115 114 114 115 115 117 118 120 121 123 122 120 114 107 116 119 120 121 120 118 118
144 146 149 150 146 142 139 136 135 133 132 131 131 130 131 130 128 125 123 120 118 117 116 117 118 119 119 120 121 122 123 122 118 113 104 110 117 122 122 121 121 120 119
143 145 154 152 149 146 144 141 140 138 136 135 134 134 134 132 131 128 125 122 121 119 117 118 119 120 121 122 123 123 123 120 115 107 103 102 109 125 124 123 123 122 123
143 146 157 153 151 149 148 146 144 143 141 140 139 137 136 136 135 132 128 124 122 119 117 116 117 121 122 124 127 127 126 118 107 106 106 109 116 128 126 124 125 124 123
144 148 157 155 154 153 152 151 149 147 145 144 143 141 139 139 136 132 128 126 124 121 119 117 118 121 125 128 129 129 128 121 113 113 113 114 124 131 129 127 127 127 126
148 149 155 158 157 157 156 155 153 152 149 148 146 144 142 141 136 132 130 129 127 123 120 119 120 123 125 126 128 130 131 128 122 122 120 123 134 134 131 129 128 128 129
146 146 151 157 159 161 160 158 158 156 154 151 149 148 145 142 141 138 134 134 130 126 124 123 123 124 125 129 133 138 141 134 122 127 131 127 136 137 135 134 132 132 132
145 146 146 146 150 155 159 162 162 161 158 154 154 153 152 149 146 142 136 139 134 131 129 126 125 122 124 129 136 144 141 125 125 126 126 140 142 143 141 140 138 137 136
154 148 146 145 146 145 153 168 164 164 163 160 159 160 150 126 123 132 147 150 140 137 133 128 127 123 119 119 129 131 121 118 129 127 136 152 154 152 148 146 144 143 143
162 158 153 150 150 150 163 156 149 152 152 141 137 134 115 112 124 135 168 159 150 144 135 126 120 112 95 79 102 110 111 125 129 138 157 162 162 158 154 152 150 151 151
163 163 162 156 154 156 151 142 134 127 127 127 130 125 122 116 112 104 94 122 113 117 88 90 86 83 94 100 97 109 127 129 135 151 169 171 170 166 160 159 160 159 157
165 168 163 162 160 157 147 143 137 134 134 135 139 140 136 136 136 134 125 108 92 87 99 90 91 95 103 117 128 129 133 138 144 149 177 180 176 170 167 168 167 166 164
169 168 169 165 165 159 149 153 150 146 148 149 149 157 158 159 166 163 157 147 136 121 122 117 107 107 113 125 140 141 141 147 153 155 176 189 181 178 177 175 176 175 172
172 169 165 165 165 159 156 156 154 153 151 156 167 177 175 171 170 167 166 167 162 155 149 142 128 119 118 126 136 140 147 155 159 161 170 195 187 183 186 186 186 187 185
171 168 167 168 163 164 162 167 160 159 157 167 178 183 181 176 175 168 166 176 175 160 146 126 110 102 116 124 125 128 139 163 169 168 165 172 188 194 194 198 197 197 196
166 168 171 175 172 172 169 166 157 161 166 172 172 178 186 180 172 164 168 180 167 150 145 136 126 117 114 122 129 126 127 152 173 171 171 179 182 195 207 211 207 207 208
171 170 172 175 174 170 162 160 161 159 169 170 165 174 183 180 174 166 169 169 154 146 148 155 125 131 137 136 136 108 85 145 180 189 191 195 196 199 205 221 218 216 219
169 169 170 173 167 158 152 149 151 152 164 167 169 177 175 174 170 160 157 158 151 146 149 142 124 107 114 130 113 86 55 58 171 207 218 210 206 209 209 219 225 230 231
167 170 169 169 166 158 162 168 170 179 174 173 179 178 173 168 165 160 155 149 153 158 164 152 126 118 107 118 99 63 25 22 240 235 224 218 218 216 211 217 219 225 239
176 173 169 167 170 174 177 174 162 145 157 169 169 169 170 165 165 163 153 155 156 147 145 149 134 124 110 118 125 110 45 352 339 282 232 224 227 220 227 227 225 226 230
181 177 176 173 174 177 173 152 131 112 101 131 162 168 173 165 162 156 159 155 158 157 160 164 153 143 138 118 122 139 147 210 287 319 279 242 227 221 232 232 231 232 230
185 177 174 176 174 177 175 170 169 172 176 186 172 166 160 159 160 160 158 157 157 153 156 166 159 146 139 144 122 85 126 151 148 324 326 300 250 235 237 237 238 236 233
176 175 175 172 173 175 176 177 177 174 172 157 148 150 153 154 162 163 159 155 153 151 156 155 151 147 144 150 153 144 121 88 103 137 267 320 308 260 244 240 243 243 236
161 162 162 165 175 177 178 178 177 171 165 160 162 165 162 155 155 161 154 151 151 152 157 160 155 148 145 140 142 147 150 151 163 155 174 247 291 310 310 275 256 255 247